Flag for Bahrain Weather past 2 weeks in Manama, Bahrain

Now
84 °F

Sunny.


Feels Like: 87 °F
Forecast: 85 / 97 °F
Wind: 6 mph from South

Location: Bahrain International Airport

Current Time: Oct 20, 2014 at 7:47:48 AM

Latest Report: Oct 20, 2014 at 6:00 AM


Visibility: 10 mi

Pressure: 29.86 "Hg

Humidity: 58%

Dew point: 68 °F

Location of ManamaLocation

Historic Weather in Manama — Graph

°F

Manama temperature yesterday

Maximum temperature yesterday: 91 °F (at 12:00 PM)
Minimum temperature yesterday: 84 °F (at 2:00 AM)
Average temperature yesterday: 87 °F

Past Weeks' High & Low Weather Summary

 TemperatureHumidityPressure
High97 °F (Oct 6, 11:00 AM)75% (Oct 6, 2:00 AM)29.98 "Hg (Oct 6, 2:00 AM)
Low82 °F (Oct 11, 5:00 AM)26% (Oct 8, 4:00 PM)29.77 "Hg (Oct 8, 4:00 AM)
Average89 °F56%29.87 "Hg
* Reported Oct 5 6:00 AM — Oct 20 6:00 AM, Manama, Weather by CustomWeather, © 2014

Note: Actual official high and low records may vary slightly from our data, if they occured in-between our weather recording intervals... More about our weather records

Advertising

Manama weather history for previous 24 hours

 ConditionsComfort  
Time TempWeatherWind HumidityBarometerVisibility
6:00 AM
Oct 20
84 °FSunny.6 mph58%29.86 "Hg10 mi
5:00 AM84 °FClear.6 mph55%29.83 "Hg10 mi
4:00 AM84 °FClear.3 mph55%29.83 "Hg10 mi
3:00 AM84 °FClear.6 mph55%29.83 "Hg10 mi
2:00 AM84 °FClear.6 mph51%29.83 "Hg10 mi
1:00 AM84 °FClear.7 mph51%29.83 "Hg10 mi
12:00 AM84 °FClear.9 mph48%29.86 "Hg10 mi
11:00 PM
Oct 19
86 °FClear.9 mph43%29.86 "Hg10 mi
10:00 PM86 °FClear.7 mph43%29.89 "Hg10 mi
9:00 PM86 °FPassing clouds.7 mph46%29.89 "HgN/A
8:00 PM86 °FClear.7 mph46%29.89 "Hg10 mi
7:00 PM86 °FClear.6 mph43%29.89 "Hg10 mi
6:00 PM86 °FClear.6 mph43%29.86 "Hg10 mi
5:00 PM88 °FSunny.7 mph40%29.86 "Hg10 mi
4:00 PM88 °FPassing clouds.7 mph40%29.86 "HgN/A
3:00 PM90 °FPassing clouds.9 mph36%29.83 "HgN/A
2:00 PM90 °FSunny.9 mph33%29.83 "Hg10 mi
1:00 PM91 °FSunny.6 mph34%29.86 "Hg10 mi
12:00 PM91 °FSunny.8 mph34%29.89 "Hg10 mi
11:00 AM90 °FSunny.7 mph36%29.89 "Hg10 mi
10:00 AM90 °FSunny.6 mph38%29.92 "Hg10 mi
9:00 AM90 °FSunny.7 mph36%29.92 "Hg10 mi
8:00 AM88 °FSunny.9 mph40%29.92 "Hg10 mi
7:00 AM86 °FSunny.7 mph43%29.89 "Hg10 mi
Weather by CustomWeather, © 2014

See weather overviewHow to use our weather pages